Florala, AL

4:50 PM CDT on March 24, 2017 (GMT -0500)
Florala

Weather History for K0J4 - February, 2013

Change the Weather History Date:

Tuesday, February 19, 2013

  Actual Average (KCEW) Record (KCEW)
Temperature  
Mean Temperature 55 °F -  
Max Temperature 66 °F 67 °F 81 °F (2017)
Min Temperature 41 °F 42 °F 21 °F (2007)
Degree Days  
Heating Degree Days 10    
Growing Degree Days 5 (Base 50)    
Moisture  
Dew Point 49 °F    
Average Humidity 71    
Maximum Humidity 94    
Minimum Humidity 30    
Precipitation  
Precipitation 0.10 in - - ()
Sea Level Pressure  
Sea Level Pressure 30.10 in    
Wind  
Wind Speed 8 mph (WNW)    
Max Wind Speed 18 mph    
Max Gust Speed 26 mph    
Visibility 9 miles    
Events Rain    
Averages and records for this station are not official NWS values.
T = Trace of Precipitation, MM = Missing Value Source: NWS Daily Summary

Daily Weather History Graph

Daily Weather History Graph

Search for Another Location

Airport or City:

Trip Planner

Search our weather history database for the weather conditions in past years. The results will help you decide how hot, cold, wet, or windy it might be!

Date:

Astronomy

Feb. 19, 2013 Rise Set
Actual Time 6:22 AM CST 5:36 PM CST
Civil Twilight 5:57 AM CST 6:00 PM CST
Nautical Twilight 5:29 AM CST 6:29 PM CST
Astronomical Twilight 5:01 AM CST 6:57 PM CST
Moon 12:19 PM CST (2/19) 1:42 AM CST (2/19)
Length of Visible Light 12h 03m
Length of Day
11h 14m
Waxing Gibbous, 67% of the Moon is Illuminated
Feb 19
Waxing Gibbous
Feb 25
Full
Mar 4
Last Quarter
Mar 11
New
Mar 19
First Quarter

Hourly Weather History & Observations

Time (CST) Temp. Windchill Dew Point Humidity Pressure Visibility Wind Dir Wind Speed Gust Speed Precip Events Conditions
12:58 AM 48.9 °F - 41.0 °F 74% 30.10 in 10.0 mi South 6.9 mph - N/A   Clear
1:58 AM 50.0 °F - 43.0 °F 77% 30.07 in 10.0 mi SSE 5.8 mph - N/A   Scattered Clouds
2:58 AM 51.1 °F - 45.0 °F 80% 30.04 in 10.0 mi South 5.8 mph - N/A   Mostly Cloudy
3:58 AM 57.0 °F - 50.0 °F 77% 30.02 in 10.0 mi South 9.2 mph - N/A   Mostly Cloudy
4:58 AM 62.1 °F - 54.0 °F 75% 30.01 in 10.0 mi South 18.4 mph 24.2 mph N/A   Overcast
5:58 AM 62.1 °F - 55.9 °F 80% 30.01 in 10.0 mi SSW 18.4 mph 26.5 mph 0.00 in Rain Light Rain
6:58 AM 60.1 °F - 57.9 °F 93% 30.03 in 4.0 mi South 12.7 mph - 0.08 in Rain Light Rain
7:03 AM 60.8 °F - 57.2 °F 88% 30.04 in 7.0 mi SSW 12.7 mph - 0.00 in Rain Light Rain
7:24 AM 60.8 °F - 57.2 °F 88% 30.06 in 9.0 mi SW 9.2 mph - 0.00 in Rain Light Rain
7:58 AM 61.0 °F - 59.0 °F 93% 30.06 in 10.0 mi SSW 11.5 mph - 0.00 in Rain Light Rain
8:14 AM 62.6 °F - 60.8 °F 94% 30.07 in 10.0 mi SW 11.5 mph - 0.00 in Rain Light Rain
8:25 AM 62.6 °F - 60.8 °F 94% 30.07 in 3.0 mi Calm Calm - 0.02 in Rain Light Rain
8:30 AM 62.6 °F - 60.8 °F 94% 30.07 in 4.0 mi Variable 3.5 mph - 0.02 in Rain Light Rain
8:58 AM 63.0 °F - 59.0 °F 87% 30.08 in 10.0 mi Variable 3.5 mph - 0.02 in   Mostly Cloudy
9:06 AM 64.4 °F - 59.0 °F 83% 30.08 in 10.0 mi Calm Calm - N/A   Mostly Cloudy
9:10 AM 64.4 °F - 60.8 °F 88% 30.08 in 10.0 mi Variable 5.8 mph - N/A   Mostly Cloudy
9:38 AM 64.4 °F - 57.2 °F 77% 30.10 in 10.0 mi Variable 5.8 mph - N/A   Overcast
9:58 AM 63.0 °F - 57.0 °F 81% 30.10 in 10.0 mi NNW 4.6 mph - N/A   Overcast
10:02 AM 64.4 °F - 57.2 °F 77% 30.10 in 10.0 mi Variable 6.9 mph - N/A   Mostly Cloudy
10:18 AM 62.6 °F - 55.4 °F 77% 30.11 in 10.0 mi NNW 6.9 mph - N/A   Overcast
10:26 AM 62.6 °F - 55.4 °F 77% 30.11 in 10.0 mi Variable 5.8 mph - N/A   Overcast
10:34 AM 64.4 °F - 55.4 °F 73% 30.12 in 10.0 mi Variable 5.8 mph - N/A   Overcast
10:44 AM 64.4 °F - 55.4 °F 73% 30.12 in 10.0 mi Variable 4.6 mph - N/A   Overcast
10:58 AM 64.0 °F - 54.0 °F 70% 30.12 in 10.0 mi Variable 6.9 mph - N/A   Overcast
11:58 AM 61.0 °F - 52.0 °F 72% 30.12 in 10.0 mi North 9.2 mph 16.1 mph N/A   Overcast
12:58 PM 59.0 °F - 50.0 °F 72% 30.12 in 10.0 mi Variable 5.8 mph - N/A   Overcast
1:35 PM 66.2 °F - 50.0 °F 56% 30.10 in 10.0 mi North 8.1 mph - N/A   Mostly Cloudy
1:58 PM 66.0 °F - 48.0 °F 52% 30.09 in 10.0 mi North 10.4 mph - N/A   Scattered Clouds
2:58 PM 66.0 °F - 42.1 °F 42% 30.10 in 10.0 mi North 10.4 mph - N/A   Clear
3:58 PM 66.0 °F - 34.0 °F 30% 30.11 in 10.0 mi North 5.8 mph - N/A   Clear
4:58 PM 61.0 °F - 28.9 °F 30% 30.13 in 10.0 mi Calm Calm - N/A   Clear
6:58 PM 52.0 °F - 30.9 °F 45% 30.16 in 10.0 mi North 3.5 mph - N/A   Clear
7:58 PM 52.0 °F - 30.9 °F 45% 30.18 in 10.0 mi North 5.8 mph - N/A   Clear
8:58 PM 48.9 °F - 30.9 °F 50% 30.19 in 10.0 mi NNW 5.8 mph - N/A   Clear
9:58 PM 45.0 °F 43.5 °F 30.0 °F 56% 30.20 in 10.0 mi North 3.5 mph - N/A   Clear
10:58 PM 44.1 °F 42.5 °F 28.9 °F 55% 30.20 in 10.0 mi Variable 3.5 mph - N/A   Clear
11:58 PM 41.0 °F 38.0 °F 30.0 °F 65% 30.20 in 10.0 mi North 4.6 mph - N/A   Clear